Flag for U.S.A. Weather past 2 weeks in Pocatello, Idaho, U.S.A.

Now
60 °F

Clear.


Feels Like: 60 °F
Forecast: 58 / 90 °F
Wind: 6 mph from East

Location: Pocatello Regional Airport

Current Time: Aug 4, 2015 at 4:17:31 AM

Latest Report: Aug 4, 2015 at 3:53 AM


Visibility: 10 mi

Pressure: 29.94 "Hg (25.50 "Hg at 1357m altitude)

Humidity: 90%

Dew point: 57 °F

Location of PocatelloLocation

Historic Weather in Pocatello — Graph

°F

Pocatello temperature yesterday

Maximum temperature yesterday: 78 °F (at 3:53 AM)
Minimum temperature yesterday: 66 °F (at 7:53 PM)
Average temperature yesterday: 73 °F

Past Weeks' High & Low Weather Summary

 TemperatureHumidityPressure
High96 °F (Aug 1, 3:53 PM)100% (Jul 23, 3:53 AM)30.28 "Hg (Jul 23, 3:53 AM)
Low39 °F (Jul 28, 6:53 AM)7% (Jul 31, 3:53 PM)29.67 "Hg (Jul 26, 11:53 PM)
Average69 °F48%29.98 "Hg
* Reported Jul 20 2:53 AM — Aug 4 2:53 AM, Pocatello, Weather by CustomWeather, © 2015

Note: Actual official high and low records may vary slightly from our data, if they occured in-between our weather recording intervals... More about our weather records

Advertising

Pocatello weather history for previous 24 hours

 ConditionsComfort  
Time TempWeatherWind HumidityBarometerVisibility
2:53 AM
Tue, Aug 4
60 °FClear.6 mph90%29.94 "Hg10 mi
1:53 AM61 °FClear.5 mph87%29.93 "Hg10 mi
12:53 AM63 °FPassing clouds.7 mph87%29.92 "Hg10 mi
11:53 PM
Mon, Aug 3
67 °FOvercast.5 mph71%29.90 "Hg10 mi
10:53 PM66 °FOvercast.6 mph75%29.90 "Hg10 mi
9:53 PM68 °FOvercast.No wind68%29.90 "Hg10 mi
8:53 PM67 °FPartly sunny.7 mph79%29.89 "Hg10 mi
7:53 PM66 °FLight rain. Overcast.7 mph81%29.92 "Hg10 mi
6:53 PM71 °FMore clouds than sun.5 mph61%29.89 "Hg10 mi
5:53 PM75 °FPartly sunny.8 mph45%29.88 "Hg10 mi
4:53 PM74 °FPassing clouds.15 mph46%29.87 "Hg10 mi
3:53 PM76 °FMore clouds than sun.14 mph45%29.90 "Hg10 mi
2:53 PM75 °FScattered clouds.13 mph43%29.91 "Hg10 mi
1:53 PM74 °FSunny.20 mph46%29.89 "Hg10 mi
12:53 PM75 °FPartly sunny.13 mph45%29.88 "Hg10 mi
11:53 AM76 °FPassing clouds.22 mph43%29.90 "Hg12 mi
10:53 AM78 °FSunny.15 mph37%29.88 "Hg10 mi
9:53 AM75 °FSunny.20 mph42%29.88 "Hg10 mi
8:53 AM74 °FSunny.12 mph43%29.85 "Hg10 mi
7:53 AM69 °FClear.5 mph53%29.83 "Hg10 mi
6:53 AM73 °FClear.5 mph38%29.80 "Hg10 mi
5:53 AM76 °FClear.20 mph35%29.78 "Hg10 mi
4:53 AM77 °FPassing clouds.12 mph32%29.77 "Hg10 mi
Weather by CustomWeather, © 2015

See weather overviewHow to use our weather pages